Weather in Hihifo

Tonga     15°57′10″S   173°47′44″W
temp.,
°C
wind,
m/s
gust,
m/s
humid.,
%
clouds,
%
prec.,
mm/h
press.,
hPa
HPBL,
m
2 march, tue
tue201:00+28ene7777100 1.4 1012518
04:00+28ne7879100 1.2 1009597
07:00+28ne788271 3.6 1011772
10:00+28ne7881100 0.3 1012724
13:00+28ne787689 1.3 1012802
16:00+28ne787528 2.1 1009704
19:00+28nne787437 2.8 1011707
22:00+28nne787586 1.6 1013633
3 march, wed
wed301:00+28nne577593 3.7 1011739
04:00+28nne4575100 1.9 1010559
07:00+28nne5574100 4.8 1012651
10:00+28nne447398 0.8 1013605
13:00+29nne346958 1.1 1012838
16:00+29n3367100 0.0 1010994
19:00+29ene116595 0.0 1011842
22:00+29ese227370 0.0 1013643
4 march, thu
thu401:00+28e457455 0.0 1012596
04:00+28e4574100 0.0 1010595
07:00+28ene5677100 0.0 1011754
10:00+28ene557574 0.0 1012752
13:00+28ne457478 0.0 1011825
16:00+28ne4473100 0.0 1009913
19:00+28ene557469 0.0 1009853
22:00+28ene447682 0.0 1011813
5 march, fri
fri501:00+28ene347591 0.0 1010834
04:00+28ene447799 0.1 1009770
07:00+28ene4475100 0.1 1010700
10:00+28e557791 0.0 1011726
13:00+28e457785 0.0 1009753
16:00+28e5576100 0.1 1008807
19:00+28e457599 0.2 1009777
22:00+28e568143 0.6 1011599
6 march, sat
sat601:00+28e568059 1.2 1011754
04:00+28e668079 0.0 1010729
07:00+28e678286 0.1 1011712
10:00+28e7882100 0.4 1012751
13:00+28ene788092 0.4 1010835
16:00+29ne677980 0.1 1008838
19:00+28ne678055 0.1 1009813
22:00+28nne678182 0.2 1011721